Weather History for West Plains, MO

Change the Weather History Date:

Thursday, January 2, 2014

  Actual Average Record
Temperature  
Mean Temperature 20 °F 34 °F  
Max Temperature 30 °F 44 °F 70 °F (2004)
Min Temperature 10 °F 23 °F -2 °F (1979)
Degree Days  
Heating Degree Days 45 31  
Month to date heating degree days 72 62  
Since 1 July heating degree days 1829 1807  
Cooling Degree Days 0 0  
Month to date cooling degree days 0 0  
Year to date cooling degree days 0 0  
Moisture  
Dew Point 12 °F    
Average Humidity 67    
Maximum Humidity 84    
Minimum Humidity 50    
Precipitation  
Precipitation 0.00 in 0.06 in 1.44 in (1951)
Month to date precipitation 0.00 0.12  
Year to date precipitation 0.00 0.12  
Sea Level Pressure  
Sea Level Pressure 30.23 in    
Wind  
Wind Speed 11 mph (NNW)    
Max Wind Speed 21 mph    
Max Gust Speed 29 mph    
Visibility 7 miles    
Events Snow    
T = Trace of Precipitation, MM = Missing Value Source: NWS Daily Summary

Daily Weather History Graph

Daily Weather History Graph

Search for Another Location

Airport:

Trip Planner

Search our weather history database for the weather conditions in past years. The results will help you decide how hot, cold, wet, or windy it might be!

Date:

Astronomy

Jan. 02, 2014 Rise Set
Actual Time 7:20 AM CST 5:02 PM CST
Civil Twilight 6:51 AM CST 5:31 PM CST
Nautical Twilight 6:19 AM CST 6:04 PM CST
Astronomical Twilight 5:48 AM CST 6:35 PM CST
Moon 8:05 AM CST (1/2) 6:57 PM CST (1/2)
Length of Visible Light 10h 39m
Length of Day
9h 42m
Waxing Crescent, 3% of the Moon is Illuminated
Jan 2
Waxing Crescent
Jan 7
First Quarter
Jan 15
Full
Jan 23
Last Quarter
Jan 30
New

Hourly Weather History & Observations

Time (CST) Temp. Windchill Dew Point Humidity Pressure Visibility Wind Dir Wind Speed Gust Speed Precip Events Conditions
12:38 AM 28.0 °F 16.1 °F 21.9 °F 78% 30.02 in 6.0 mi NNW 16.1 mph 24.2 mph 0.00 in Snow Light Snow
12:53 AM 27.0 °F 16.1 °F 21.9 °F 81% 30.04 in 3.0 mi NNW 12.7 mph 23.0 mph 0.00 in Snow Light Snow
12:59 AM 27.0 °F 15.6 °F 21.9 °F 81% 30.02 in 1.8 mi NNW 13.8 mph - 0.00 in Snow Light Snow
1:24 AM 26.1 °F 14.5 °F 21.0 °F 81% 30.04 in 2.0 mi NNW 13.8 mph 20.7 mph 0.00 in Snow Light Snow
1:49 AM 24.8 °F 12.9 °F 19.4 °F 80% 30.05 in 2.5 mi NNW 13.8 mph 25.3 mph 0.00 in Snow Light Snow
1:53 AM 24.1 °F 10.6 °F 19.0 °F 81% 30.08 in 2.0 mi NNW 17.3 mph 25.3 mph 0.00 in Snow Light Snow
2:06 AM 24.1 °F 11.0 °F 18.0 °F 77% 30.06 in 3.0 mi NNW 16.1 mph 24.2 mph 0.00 in Snow Light Snow
2:17 AM 23.0 °F 9.6 °F 17.1 °F 78% 30.07 in 2.0 mi NNW 16.1 mph 25.3 mph 0.00 in Snow Light Snow
2:24 AM 23.0 °F 10.1 °F 18.0 °F 81% 30.08 in 1.5 mi NNW 15.0 mph 20.7 mph 0.00 in Snow Light Snow
2:39 AM 21.9 °F 8.7 °F 17.1 °F 82% 30.08 in 2.0 mi NNW 15.0 mph 25.3 mph 0.00 in Snow Light Snow
2:53 AM 19.9 °F 4.8 °F 15.1 °F 81% 30.12 in 2.5 mi NNW 18.4 mph 26.5 mph 0.00 in Snow Light Snow
3:05 AM 19.0 °F 5.6 °F 14.0 °F 81% 30.09 in 1.2 mi NNW 13.8 mph 26.5 mph 0.00 in Snow Light Snow
3:11 AM 19.0 °F 5.0 °F 14.0 °F 81% 30.10 in 0.8 mi NNW 15.0 mph 23.0 mph 0.00 in Snow Light Snow
3:20 AM 19.0 °F 3.6 °F 12.9 °F 77% 30.10 in 1.0 mi NNW 18.4 mph 28.8 mph 0.00 in Snow Light Snow
3:27 AM 18.0 °F 4.2 °F 12.9 °F 81% 30.10 in 1.5 mi NNW 13.8 mph 25.3 mph 0.00 in Snow Light Snow
3:35 AM 18.0 °F 4.2 °F 12.9 °F 81% 30.10 in 2.5 mi NNW 13.8 mph 21.9 mph 0.00 in Snow Light Snow
3:43 AM 18.0 °F 2.6 °F 12.0 °F 78% 30.10 in 5.0 mi NNW 17.3 mph 23.0 mph 0.00 in Snow Light Snow
3:53 AM 18.0 °F 6.1 °F 12.0 °F 78% 30.13 in 6.0 mi NNW 10.4 mph 20.7 mph 0.00 in Snow Light Snow
4:53 AM 16.0 °F 4.4 °F 10.0 °F 77% 30.17 in 10.0 mi NNW 9.2 mph 21.9 mph 0.00 in   Mostly Cloudy
5:53 AM 16.0 °F 2.3 °F 10.0 °F 77% 30.20 in 10.0 mi NW 12.7 mph 21.9 mph N/A   Mostly Cloudy
6:03 AM 16.0 °F 2.9 °F 10.0 °F 77% 30.17 in 10.0 mi NW 11.5 mph 20.7 mph N/A   Mostly Cloudy
6:53 AM 15.1 °F -0.1 °F 10.0 °F 80% 30.22 in 10.0 mi NW 15.0 mph 20.7 mph N/A   Mostly Cloudy
7:06 AM 15.1 °F -0.1 °F 10.0 °F 80% 30.19 in 10.0 mi NNW 15.0 mph - N/A   Mostly Cloudy
7:53 AM 15.1 °F 0.5 °F 10.0 °F 80% 30.26 in 8.0 mi NW 13.8 mph 24.2 mph N/A   Mostly Cloudy
8:53 AM 17.1 °F 5.0 °F 10.0 °F 74% 30.29 in 9.0 mi NNW 10.4 mph 21.9 mph N/A   Overcast
9:20 AM 17.1 °F 2.0 °F 10.0 °F 74% 30.27 in 10.0 mi NNW 16.1 mph 23.0 mph N/A   Scattered Clouds
9:37 AM 18.0 °F 3.6 °F 10.0 °F 71% 30.28 in 9.0 mi NNW 15.0 mph 21.9 mph N/A   Mostly Cloudy
9:53 AM 19.0 °F 8.2 °F 10.9 °F 71% 30.32 in 10.0 mi NNW 9.2 mph 19.6 mph N/A   Mostly Cloudy
10:06 AM 19.0 °F 7.5 °F 10.9 °F 71% 30.28 in 10.0 mi NNW 10.4 mph 21.9 mph N/A   Scattered Clouds
10:53 AM 21.9 °F 8.7 °F 12.0 °F 66% 30.34 in 10.0 mi NW 15.0 mph - N/A   Partly Cloudy
11:53 AM 24.1 °F 12.5 °F 12.9 °F 62% 30.33 in 10.0 mi NW 12.7 mph - N/A   Scattered Clouds
12:53 PM 25.0 °F 13.1 °F 12.0 °F 58% 30.31 in 10.0 mi NNW 13.8 mph 21.9 mph N/A   Clear
1:53 PM 25.0 °F 12.6 °F 10.0 °F 53% 30.32 in 10.0 mi NNW 15.0 mph 21.9 mph N/A   Clear
2:53 PM 24.1 °F 11.5 °F 10.0 °F 55% 30.35 in 10.0 mi NW 15.0 mph 24.2 mph N/A   Clear
3:53 PM 24.1 °F 12.0 °F 9.0 °F 53% 30.37 in 10.0 mi NW 13.8 mph 21.9 mph N/A   Clear
4:53 PM 21.0 °F 9.3 °F 8.1 °F 57% 30.39 in 10.0 mi NW 11.5 mph - N/A   Clear
5:53 PM 19.0 °F 9.0 °F 7.0 °F 59% 30.42 in 10.0 mi NNW 8.1 mph - N/A   Clear
6:53 PM 16.0 °F 8.8 °F 6.1 °F 65% 30.44 in 10.0 mi NNW 4.6 mph - N/A   Clear
7:53 PM 16.0 °F 6.3 °F 5.0 °F 62% 30.46 in 10.0 mi North 6.9 mph - N/A   Clear
8:53 PM 14.0 °F 2.9 °F 3.9 °F 64% 30.47 in 10.0 mi North 8.1 mph - N/A   Clear
9:53 PM 14.0 °F 6.5 °F 3.9 °F 64% 30.48 in 10.0 mi North 4.6 mph - N/A   Clear
10:53 PM 12.0 °F 0.5 °F 1.9 °F 64% 30.49 in 10.0 mi North 8.1 mph - N/A   Clear
11:53 PM 10.0 °F 0.4 °F -0.0 °F 64% 30.50 in 10.0 mi North 5.8 mph - N/A   Clear